This is the latest recevied weather packets stored in our database for station/object OE6PLD-13. If no packets are shown the sender has not sent any weather packets the latest 10 day(s).
| Time | Temp. | Humidity | Pressure | Rain* | Wind** | Luminosity | Snow |
|---|---|---|---|---|---|---|---|
| 1777310758 | 19.44° C | 41% | 1011.4 hPa | 0.76 mm | - | 22 W/m² | - |
| 1777310574 | 19.44° C | 41% | 1011.3 hPa | 0.76 mm | - | 23 W/m² | - |
| 1777310391 | 18.89° C | 42% | 1011.2 hPa | 0.76 mm | - | 25 W/m² | - |
| 1777310208 | 18.89° C | 41% | 1011.3 hPa | 0.76 mm | - | 23 W/m² | - |
| 1777310024 | 18.89° C | 41% | 1011.3 hPa | 0.76 mm | - | 22 W/m² | - |
| 1777309841 | 18.89° C | 40% | 1011.3 hPa | 0.76 mm | - | 23 W/m² | - |
| 1777309658 | 19.44° C | 40% | 1011.4 hPa | 0.76 mm | - | 24 W/m² | - |
| 1777309474 | 20° C | 39% | 1011.2 hPa | 0.76 mm | - | 25 W/m² | - |
| 1777309291 | 20° C | 38% | 1011.2 hPa | 0.76 mm | - | 30 W/m² | - |
| 1777309108 | 20° C | 38% | 1011.4 hPa | 0.76 mm | - | 32 W/m² | - |
| 1777308924 | 20° C | 39% | 1011.2 hPa | 0.76 mm | - | 31 W/m² | - |
| 1777308741 | 20° C | 38% | 1011.4 hPa | 0.76 mm | - | 33 W/m² | - |
| 1777308558 | 20.56° C | 39% | 1011.3 hPa | 0.76 mm | - | 34 W/m² | - |
| 1777308374 | 20.56° C | 37% | 1011.1 hPa | 0.76 mm | - | 39 W/m² | - |
| 1777308191 | 21.11° C | 37% | 1011.1 hPa | 0.76 mm | - | 41 W/m² | - |
| 1777308007 | 21.11° C | 36% | 1011.1 hPa | 0.76 mm | - | 44 W/m² | - |
| 1777307824 | 21.11° C | 36% | 1011.2 hPa | 0.76 mm | - | 44 W/m² | - |
| 1777307641 | 21.67° C | 36% | 1011.4 hPa | 0.76 mm | - | 45 W/m² | - |
| 1777307457 | 21.67° C | 35% | 1011.3 hPa | 0.76 mm | - | 46 W/m² | - |
| 1777307274 | 21.67° C | 35% | 1011.3 hPa | 0.76 mm | - | 48 W/m² | - |
| 1777307091 | 21.67° C | 36% | 1011.3 hPa | 0.76 mm | - | 47 W/m² | - |
| 1777306907 | 21.11° C | 35% | 1011.3 hPa | 0.76 mm | - | 58 W/m² | - |
| 1777306724 | 21.11° C | 35% | 1011.2 hPa | 0.76 mm | - | 61 W/m² | - |
| 1777306541 | 21.11° C | 35% | 1011.3 hPa | 0.76 mm | - | 69 W/m² | - |
| 1777306357 | 21.67° C | 36% | 1011.5 hPa | 0.76 mm | - | 84 W/m² | - |
* Rain latest hour (hover to see other rain measurements)
** Current wind speed in m/s (hover to see current wind gust speed)